Time,TemperatureF,DewpointF,PressureIn,WindDirection,WindDirectionDegrees,WindSpeedMPH,WindSpeedGustMPH,Humidity,HourlyPrecipIn,Conditions,Clouds,dailyrainin,SoftwareType,DateUTC
2013-12-01 00:00:00,44.8,38.3,30.02,NW,315,3.1,6.0,78,0.00,,,0.00,pywws,2013-11-30 23:00:00,
2013-12-01 00:01:00,44.6,38.2,30.02,North,0,3.1,5.4,78,0.00,,,0.00,pywws,2013-11-30 23:01:00,
2013-12-01 00:06:00,44.6,38.2,30.02,North,0,3.1,5.4,78,0.00,,,0.00,pywws,2013-11-30 23:06:00,
2013-12-01 00:11:00,45.0,38.8,30.02,NW,315,3.8,6.9,79,0.00,,,0.00,pywws,2013-11-30 23:11:00,
2013-12-01 00:16:00,44.4,38.3,30.02,North,0,2.2,6.0,79,0.00,,,0.00,pywws,2013-11-30 23:16:00,
2013-12-01 00:21:00,44.2,38.1,30.02,North,0,2.2,4.5,79,0.00,,,0.00,pywws,2013-11-30 23:21:00,
2013-12-01 00:26:00,44.6,38.5,30.03,NE,45,2.2,3.8,79,0.00,,,0.00,pywws,2013-11-30 23:26:00,
2013-12-01 00:31:00,44.1,38.0,30.02,North,0,3.1,5.4,79,0.00,,,0.00,pywws,2013-11-30 23:31:00,
2013-12-01 00:36:00,44.6,38.5,30.02,North,0,0.0,2.2,79,0.00,,,0.00,pywws,2013-11-30 23:36:00,
2013-12-01 00:41:00,44.2,38.1,30.02,North,0,1.6,3.1,79,0.00,,,0.00,pywws,2013-11-30 23:41:00,
2013-12-01 00:46:00,44.6,38.5,30.03,North,0,1.6,3.8,79,0.00,,,0.00,pywws,2013-11-30 23:46:00,
2013-12-01 01:00:00,44.8,38.7,30.02,North,0,1.6,3.8,79,0.00,,,0.00,pywws,2013-12-01 00:00:00,
2013-12-01 01:01:00,43.9,37.8,30.02,North,0,1.6,2.2,79,0.00,,,0.00,pywws,2013-12-01 00:01:00,
2013-12-01 01:06:00,43.9,37.8,30.03,North,0,1.6,2.2,79,0.00,,,0.00,pywws,2013-12-01 00:06:00,
2013-12-01 01:11:00,44.2,38.5,30.02,NW,315,1.6,3.8,80,0.00,,,0.00,pywws,2013-12-01 00:11:00,
2013-12-01 01:16:00,45.1,39.3,30.03,NNW,338,1.6,2.2,80,0.00,,,0.00,pywws,2013-12-01 00:16:00,
2013-12-01 01:21:00,44.8,38.7,30.02,North,0,1.6,3.1,79,0.00,,,0.00,pywws,2013-12-01 00:21:00,
2013-12-01 01:26:00,44.8,38.7,30.03,NW,315,2.2,3.8,79,0.00,,,0.00,pywws,2013-12-01 00:26:00,
2013-12-01 01:31:00,45.1,39.0,30.03,North,0,2.2,3.8,79,0.00,,,0.00,pywws,2013-12-01 00:31:00,
2013-12-01 01:36:00,45.0,38.8,30.03,North,0,0.7,2.2,79,0.00,,,0.00,pywws,2013-12-01 00:36:00,
2013-12-01 01:41:00,45.1,39.0,30.03,NW,315,0.7,2.2,79,0.00,,,0.00,pywws,2013-12-01 00:41:00,
2013-12-01 01:46:00,44.8,38.7,30.03,NW,315,0.7,1.6,79,0.00,,,0.00,pywws,2013-12-01 00:46:00,
2013-12-01 02:00:00,45.1,39.0,30.03,North,0,0.0,0.7,79,0.00,,,0.00,pywws,2013-12-01 01:00:00,
2013-12-01 02:01:00,45.3,39.2,30.03,NW,315,0.7,1.6,79,0.00,,,0.00,pywws,2013-12-01 01:01:00,
2013-12-01 02:06:00,45.3,39.2,30.02,NW,315,0.7,1.6,79,0.00,,,0.00,pywws,2013-12-01 01:06:00,
2013-12-01 02:11:00,44.8,38.7,30.02,West,270,0.7,3.1,79,0.00,,,0.00,pywws,2013-12-01 01:11:00,
2013-12-01 02:16:00,45.1,39.3,30.02,North,0,1.6,3.1,80,0.00,,,0.00,pywws,2013-12-01 01:16:00,
2013-12-01 02:21:00,45.1,39.3,30.02,NNW,338,3.1,3.8,80,0.00,,,0.00,pywws,2013-12-01 01:21:00,
2013-12-01 02:26:00,45.1,39.3,30.02,North,0,1.6,3.1,80,0.00,,,0.00,pywws,2013-12-01 01:26:00,
2013-12-01 02:31:00,46.2,40.4,30.02,North,0,1.6,3.1,80,0.00,,,0.00,pywws,2013-12-01 01:31:00,
2013-12-01 02:36:00,45.7,39.9,30.01,North,0,1.6,3.1,80,0.00,,,0.00,pywws,2013-12-01 01:36:00,
2013-12-01 02:41:00,45.7,39.9,30.01,North,0,3.1,6.0,80,0.00,,,0.00,pywws,2013-12-01 01:41:00,
2013-12-01 02:46:00,45.9,40.0,30.01,NE,45,1.6,3.1,80,0.00,,,0.00,pywws,2013-12-01 01:46:00,
2013-12-01 03:00:00,46.4,40.6,30.01,NW,315,0.7,2.2,80,0.00,,,0.00,pywws,2013-12-01 02:00:00,
2013-12-01 03:01:00,46.4,40.2,30.01,North,0,2.2,3.8,79,0.00,,,0.00,pywws,2013-12-01 02:01:00,
2013-12-01 03:06:00,46.4,40.2,30.01,North,0,2.2,3.8,79,0.00,,,0.00,pywws,2013-12-01 02:06:00,
2013-12-01 03:11:00,46.2,40.1,30.01,North,0,1.6,3.8,79,0.00,,,0.00,pywws,2013-12-01 02:11:00,
2013-12-01 03:16:00,46.4,40.2,30.01,NW,315,3.1,5.4,79,0.00,,,0.00,pywws,2013-12-01 02:16:00,
2013-12-01 03:21:00,46.6,40.4,30.00,NW,315,2.2,3.8,79,0.00,,,0.00,pywws,2013-12-01 02:21:00,
2013-12-01 03:26:00,46.4,40.2,30.01,NW,315,4.5,6.0,79,0.00,,,0.00,pywws,2013-12-01 02:26:00,
2013-12-01 03:31:00,47.3,41.1,30.01,NW,315,1.6,3.8,79,0.00,,,0.00,pywws,2013-12-01 02:31:00,
2013-12-01 03:36:00,47.3,41.1,30.00,North,0,3.8,6.0,79,0.00,,,0.00,pywws,2013-12-01 02:36:00,
2013-12-01 03:41:00,47.1,40.9,30.01,North,0,3.1,4.5,79,0.00,,,0.00,pywws,2013-12-01 02:41:00,
2013-12-01 03:46:00,47.7,41.5,30.01,NW,315,2.2,4.5,79,0.00,,,0.00,pywws,2013-12-01 02:46:00,
2013-12-01 04:00:00,47.3,41.1,30.01,NW,315,0.7,2.2,79,0.00,,,0.00,pywws,2013-12-01 03:00:00,
2013-12-01 04:01:00,46.8,40.6,30.00,North,0,1.6,4.5,79,0.00,,,0.00,pywws,2013-12-01 03:01:00,
2013-12-01 04:06:00,46.9,40.8,30.00,North,0,2.2,5.4,79,0.00,,,0.00,pywws,2013-12-01 03:06:00,
2013-12-01 04:11:00,47.3,41.1,30.00,NE,45,1.6,3.1,79,0.00,,,0.00,pywws,2013-12-01 03:11:00,
2013-12-01 04:16:00,47.1,40.9,30.01,NW,315,2.2,4.5,79,0.00,,,0.00,pywws,2013-12-01 03:16:00,
2013-12-01 04:21:00,47.3,41.1,30.01,North,0,2.2,3.8,79,0.00,,,0.00,pywws,2013-12-01 03:21:00,
2013-12-01 04:26:00,46.9,40.8,30.00,NW,315,3.1,4.5,79,0.00,,,0.00,pywws,2013-12-01 03:26:00,
2013-12-01 04:31:00,47.8,41.3,30.00,NW,315,0.0,2.2,78,0.00,,,0.00,pywws,2013-12-01 03:31:00,
2013-12-01 04:36:00,47.8,41.6,30.00,East,90,1.6,3.1,79,0.00,,,0.00,pywws,2013-12-01 03:36:00,
2013-12-01 04:41:00,48.2,41.7,30.00,NW,315,1.6,3.1,78,0.00,,,0.00,pywws,2013-12-01 03:41:00,
2013-12-01 04:46:00,48.0,41.5,30.00,NW,315,0.7,1.6,78,0.00,,,0.00,pywws,2013-12-01 03:46:00,
2013-12-01 05:00:00,48.0,41.5,29.99,North,0,2.2,5.4,78,0.00,,,0.00,pywws,2013-12-01 04:00:00,
2013-12-01 05:01:00,48.2,41.7,29.99,North,0,1.6,3.1,78,0.00,,,0.00,pywws,2013-12-01 04:01:00,
2013-12-01 05:06:00,48.2,41.7,29.99,North,0,1.6,3.1,78,0.00,,,0.00,pywws,2013-12-01 04:06:00,
2013-12-01 05:11:00,48.0,41.5,29.99,NE,45,1.6,3.1,78,0.00,,,0.00,pywws,2013-12-01 04:11:00,
2013-12-01 05:16:00,47.7,41.1,29.98,NE,45,3.1,4.5,78,0.00,,,0.00,pywws,2013-12-01 04:16:00,
2013-12-01 05:21:00,48.0,41.5,29.98,North,0,0.7,3.1,78,0.00,,,0.00,pywws,2013-12-01 04:21:00,
2013-12-01 05:26:00,48.2,42.0,29.99,NE,45,1.6,3.8,79,0.00,,,0.00,pywws,2013-12-01 04:26:00,
2013-12-01 05:31:00,48.0,41.5,29.99,North,0,1.6,4.5,78,0.00,,,0.00,pywws,2013-12-01 04:31:00,
2013-12-01 05:36:00,48.2,41.7,29.99,North,0,1.6,3.1,78,0.00,,,0.00,pywws,2013-12-01 04:36:00,
2013-12-01 05:41:00,48.0,41.5,29.99,NW,315,1.6,3.8,78,0.00,,,0.00,pywws,2013-12-01 04:41:00,
2013-12-01 05:46:00,47.8,41.3,29.99,East,90,1.6,3.1,78,0.00,,,0.00,pywws,2013-12-01 04:46:00,
2013-12-01 06:00:00,47.8,41.3,29.98,NE,45,0.0,1.6,78,0.00,,,0.00,pywws,2013-12-01 05:00:00,
2013-12-01 06:01:00,48.0,41.5,29.99,NE,45,1.6,3.1,78,0.00,,,0.00,pywws,2013-12-01 05:01:00,
2013-12-01 06:06:00,48.0,41.5,29.98,NE,45,1.6,3.1,78,0.00,,,0.00,pywws,2013-12-01 05:06:00,
2013-12-01 06:11:00,48.6,42.3,29.99,NW,315,1.6,3.8,79,0.00,,,0.00,pywws,2013-12-01 05:11:00,
2013-12-01 06:16:00,48.2,42.0,29.98,North,0,0.7,2.2,79,0.00,,,0.00,pywws,2013-12-01 05:16:00,
2013-12-01 06:21:00,48.4,42.2,29.98,NE,45,2.2,4.5,79,0.00,,,0.00,pywws,2013-12-01 05:21:00,
2013-12-01 06:26:00,48.0,41.8,29.99,North,0,2.2,3.8,79,0.00,,,0.00,pywws,2013-12-01 05:26:00,
2013-12-01 06:31:00,48.4,42.2,29.99,SE,135,2.2,3.8,79,0.00,,,0.00,pywws,2013-12-01 05:31:00,
2013-12-01 06:36:00,47.1,40.6,29.99,NE,45,1.6,3.1,78,0.00,,,0.00,pywws,2013-12-01 05:36:00,
2013-12-01 06:41:00,48.0,41.8,29.98,NNE,22,1.6,3.1,79,0.00,,,0.00,pywws,2013-12-01 05:41:00,
2013-12-01 06:46:00,48.2,42.0,29.98,NW,315,2.2,3.8,79,0.00,,,0.00,pywws,2013-12-01 05:46:00,
2013-12-01 06:51:00,47.8,41.6,29.98,West,270,2.2,4.5,79,0.00,,,0.00,pywws,2013-12-01 05:51:00,
2013-12-01 07:01:00,48.4,42.2,29.98,NW,315,1.6,3.8,79,0.00,,,0.00,pywws,2013-12-01 06:01:00,
2013-12-01 07:06:00,48.6,42.3,29.98,North,0,2.2,3.8,79,0.00,,,0.00,pywws,2013-12-01 06:06:00,
2013-12-01 07:11:00,48.2,41.7,29.98,North,0,1.6,3.1,78,0.00,,,0.00,pywws,2013-12-01 06:11:00,
2013-12-01 07:16:00,48.2,41.7,29.98,North,0,0.0,1.6,78,0.00,,,0.00,pywws,2013-12-01 06:16:00,
2013-12-01 07:21:00,48.2,41.7,29.97,NW,315,0.7,2.2,78,0.00,,,0.00,pywws,2013-12-01 06:21:00,
2013-12-01 07:26:00,48.2,41.7,29.98,North,0,1.6,3.1,78,0.00,,,0.00,pywws,2013-12-01 06:26:00,
2013-12-01 07:31:00,48.2,41.7,29.97,WNW,292,0.7,3.1,78,0.00,,,0.00,pywws,2013-12-01 06:31:00,
2013-12-01 07:36:00,48.6,42.0,29.96,North,0,1.6,3.1,78,0.00,,,0.00,pywws,2013-12-01 06:36:00,
2013-12-01 07:41:00,48.9,42.4,29.96,ENE,68,2.2,3.1,78,0.00,,,0.00,pywws,2013-12-01 06:41:00,
2013-12-01 07:46:00,48.6,41.7,29.96,NW,315,1.6,2.2,77,0.00,,,0.00,pywws,2013-12-01 06:46:00,
2013-12-01 08:00:00,48.7,41.9,29.95,NNW,338,2.2,3.1,77,0.00,,,0.00,pywws,2013-12-01 07:00:00,
2013-12-01 08:01:00,49.5,42.2,29.94,North,0,1.6,3.1,76,0.00,,,0.00,pywws,2013-12-01 07:01:00,
2013-12-01 08:06:00,49.3,42.0,29.93,NW,315,3.1,5.4,76,0.00,,,0.00,pywws,2013-12-01 07:06:00,
2013-12-01 08:11:00,49.1,41.9,29.92,NW,315,2.2,5.4,76,0.00,,,0.00,pywws,2013-12-01 07:11:00,
2013-12-01 08:16:00,49.8,42.2,29.92,West,270,3.1,5.4,75,0.00,,,0.00,pywws,2013-12-01 07:16:00,
2013-12-01 08:21:00,50.2,41.9,29.92,WNW,292,3.1,5.4,73,0.00,,,0.00,pywws,2013-12-01 07:21:00,
2013-12-01 08:26:00,50.5,41.9,29.91,NW,315,3.8,5.4,72,0.00,,,0.00,pywws,2013-12-01 07:26:00,
2013-12-01 08:31:00,51.3,42.2,29.91,North,0,3.1,9.8,71,0.00,,,0.00,pywws,2013-12-01 07:31:00,
2013-12-01 08:36:00,52.9,42.6,29.90,NW,315,6.0,9.2,68,0.00,,,0.00,pywws,2013-12-01 07:36:00,
2013-12-01 08:41:00,53.1,42.8,29.90,NW,315,6.9,9.2,68,0.00,,,0.00,pywws,2013-12-01 07:41:00,
2013-12-01 08:46:00,52.7,42.1,29.90,NW,315,5.4,8.3,67,0.00,,,0.00,pywws,2013-12-01 07:46:00,
2013-12-01 09:00:00,52.9,41.8,29.90,West,270,5.4,9.8,66,0.00,,,0.00,pywws,2013-12-01 08:00:00,
2013-12-01 09:01:00,53.4,42.3,29.89,NW,315,6.0,12.1,66,0.00,,,0.00,pywws,2013-12-01 08:01:00,
2013-12-01 09:06:00,53.4,42.0,29.89,NW,315,7.6,13.0,65,0.00,,,0.00,pywws,2013-12-01 08:06:00,
2013-12-01 09:11:00,53.8,42.3,29.88,West,270,8.3,12.1,65,0.00,,,0.00,pywws,2013-12-01 08:11:00,
2013-12-01 09:16:00,54.0,42.1,29.88,NW,315,11.4,22.1,64,0.00,,,0.00,pywws,2013-12-01 08:16:00,
2013-12-01 09:21:00,54.1,41.8,29.88,SW,225,10.7,18.3,63,0.00,,,0.00,pywws,2013-12-01 08:21:00,
2013-12-01 09:26:00,54.0,41.7,29.88,NW,315,11.4,16.8,63,0.00,,,0.00,pywws,2013-12-01 08:26:00,
2013-12-01 09:31:00,54.9,42.5,29.88,NW,315,12.1,17.5,63,0.00,,,0.00,pywws,2013-12-01 08:31:00,
2013-12-01 09:36:00,54.5,42.2,29.88,North,0,13.0,18.3,63,0.00,,,0.00,pywws,2013-12-01 08:36:00,
2013-12-01 09:41:00,54.1,41.8,29.88,NW,315,8.3,11.4,63,0.00,,,0.00,pywws,2013-12-01 08:41:00,
2013-12-01 09:46:00,54.7,42.7,29.88,NW,315,9.8,16.8,64,0.00,,,0.00,pywws,2013-12-01 08:46:00,
2013-12-01 10:00:00,54.5,42.6,29.88,WNW,292,9.8,15.9,64,0.00,,,0.00,pywws,2013-12-01 09:00:00,
2013-12-01 10:01:00,54.1,42.2,29.89,NW,315,7.6,14.5,64,0.00,,,0.00,pywws,2013-12-01 09:01:00,
2013-12-01 10:06:00,54.1,42.2,29.88,NW,315,7.6,14.5,64,0.00,,,0.00,pywws,2013-12-01 09:06:00,
2013-12-01 10:11:00,54.9,42.9,29.88,West,270,13.0,22.8,64,0.00,,,0.00,pywws,2013-12-01 09:11:00,
2013-12-01 10:16:00,55.0,43.1,29.87,NW,315,12.1,16.8,64,0.00,,,0.00,pywws,2013-12-01 09:16:00,
2013-12-01 10:21:00,54.7,43.1,29.88,North,0,9.2,15.2,65,0.00,,,0.00,pywws,2013-12-01 09:21:00,
2013-12-01 10:26:00,54.5,43.0,29.87,West,270,8.3,13.6,65,0.00,,,0.00,pywws,2013-12-01 09:26:00,
2013-12-01 10:31:00,54.3,42.8,29.87,North,0,5.4,9.8,65,0.00,,,0.00,pywws,2013-12-01 09:31:00,
2013-12-01 10:36:00,54.3,42.8,29.87,NW,315,7.6,11.4,65,0.00,,,0.00,pywws,2013-12-01 09:36:00,
2013-12-01 10:41:00,54.5,43.4,29.88,NW,315,9.2,17.5,66,0.00,,,0.00,pywws,2013-12-01 09:41:00,
2013-12-01 10:46:00,54.9,43.7,29.87,North,0,9.2,14.5,66,0.00,,,0.00,pywws,2013-12-01 09:46:00,
2013-12-01 11:00:00,54.3,43.2,29.87,NW,315,9.8,14.5,66,0.00,,,0.00,pywws,2013-12-01 10:00:00,
2013-12-01 11:01:00,54.7,43.5,29.88,North,0,6.0,10.7,66,0.00,,,0.00,pywws,2013-12-01 10:01:00,
2013-12-01 11:06:00,54.5,43.0,29.88,NW,315,10.7,19.7,65,0.00,,,0.00,pywws,2013-12-01 10:06:00,
2013-12-01 11:11:00,54.3,42.4,29.88,NW,315,9.8,17.5,64,0.00,,,0.00,pywws,2013-12-01 10:11:00,
2013-12-01 11:16:00,54.9,42.5,29.87,NW,315,9.2,14.5,63,0.00,,,0.00,pywws,2013-12-01 10:16:00,
2013-12-01 11:21:00,54.9,42.1,29.87,NNW,338,9.8,16.8,62,0.00,,,0.00,pywws,2013-12-01 10:21:00,
2013-12-01 11:26:00,54.7,41.5,29.88,WNW,292,6.9,16.8,61,0.00,,,0.00,pywws,2013-12-01 10:26:00,
2013-12-01 11:31:00,54.7,41.1,29.89,NW,315,8.3,13.6,60,0.00,,,0.00,pywws,2013-12-01 10:31:00,
2013-12-01 11:36:00,55.2,41.6,29.89,NW,315,8.3,13.0,60,0.00,,,0.00,pywws,2013-12-01 10:36:00,
2013-12-01 11:41:00,55.0,41.0,29.90,NNW,338,9.8,15.9,59,0.00,,,0.00,pywws,2013-12-01 10:41:00,
2013-12-01 11:46:00,55.8,41.2,29.90,NW,315,8.3,13.6,58,0.00,,,0.00,pywws,2013-12-01 10:46:00,
2013-12-01 12:00:00,55.6,41.0,29.90,NW,315,6.9,14.5,58,0.00,,,0.00,pywws,2013-12-01 11:00:00,
2013-12-01 12:01:00,56.1,41.1,29.91,NW,315,11.4,16.8,57,0.00,,,0.00,pywws,2013-12-01 11:01:00,
2013-12-01 12:06:00,56.3,41.3,29.91,NW,315,4.5,7.6,57,0.00,,,0.00,pywws,2013-12-01 11:06:00,
2013-12-01 12:11:00,55.9,40.5,29.91,North,0,6.9,13.0,56,0.00,,,0.00,pywws,2013-12-01 11:11:00,
2013-12-01 12:16:00,55.2,40.3,29.91,NW,315,8.3,12.1,57,0.00,,,0.00,pywws,2013-12-01 11:16:00,
2013-12-01 12:21:00,55.4,40.4,29.91,North,0,10.7,15.9,57,0.00,,,0.00,pywws,2013-12-01 11:21:00,
2013-12-01 12:26:00,55.6,40.6,29.91,NW,315,5.4,9.8,57,0.00,,,0.00,pywws,2013-12-01 11:26:00,
2013-12-01 12:31:00,55.9,40.9,29.91,NW,315,7.6,11.4,57,0.00,,,0.00,pywws,2013-12-01 11:31:00,
2013-12-01 12:36:00,56.5,41.4,29.91,NW,315,6.0,13.0,57,0.00,,,0.00,pywws,2013-12-01 11:36:00,
2013-12-01 12:41:00,55.4,40.9,29.92,North,0,7.6,11.4,58,0.00,,,0.00,pywws,2013-12-01 11:41:00,
2013-12-01 12:46:00,55.8,41.2,29.91,NW,315,6.0,9.8,58,0.00,,,0.00,pywws,2013-12-01 11:46:00,
2013-12-01 13:00:00,55.9,41.4,29.91,West,270,6.0,13.0,58,0.00,,,0.00,pywws,2013-12-01 12:00:00,
2013-12-01 13:01:00,55.9,40.9,29.91,North,0,6.9,11.4,57,0.00,,,0.00,pywws,2013-12-01 12:01:00,
2013-12-01 13:06:00,55.9,40.9,29.91,North,0,6.0,10.7,57,0.00,,,0.00,pywws,2013-12-01 12:06:00,
2013-12-01 13:11:00,55.9,41.4,29.92,NW,315,8.3,13.6,58,0.00,,,0.00,pywws,2013-12-01 12:11:00,
2013-12-01 13:16:00,55.8,41.2,29.91,NW,315,7.6,11.4,58,0.00,,,0.00,pywws,2013-12-01 12:16:00,
2013-12-01 13:21:00,55.9,42.3,29.90,NW,315,7.6,12.1,60,0.00,,,0.00,pywws,2013-12-01 12:21:00,
2013-12-01 13:26:00,55.6,42.3,29.90,NW,315,8.3,14.5,61,0.00,,,0.00,pywws,2013-12-01 12:26:00,
2013-12-01 13:31:00,55.6,42.8,29.90,NW,315,6.9,13.0,62,0.00,,,0.00,pywws,2013-12-01 12:31:00,
2013-12-01 13:36:00,55.9,43.1,29.90,NW,315,6.9,10.7,62,0.00,,,0.00,pywws,2013-12-01 12:36:00,
2013-12-01 13:41:00,55.4,43.0,29.89,NW,315,7.6,10.7,63,0.00,,,0.00,pywws,2013-12-01 12:41:00,
2013-12-01 13:46:00,55.0,42.7,29.89,NW,315,10.7,18.3,63,0.00,,,0.00,pywws,2013-12-01 12:46:00,
2013-12-01 14:00:00,56.1,43.7,29.88,NW,315,9.2,16.8,63,0.00,,,0.00,pywws,2013-12-01 13:00:00,
2013-12-01 14:01:00,57.0,42.4,29.89,NW,315,13.6,26.6,58,0.00,,,0.00,pywws,2013-12-01 13:01:00,
2013-12-01 14:06:00,57.4,42.7,29.89,NW,315,9.8,13.6,58,0.00,,,0.00,pywws,2013-12-01 13:06:00,
2013-12-01 14:11:00,57.4,42.7,29.89,NW,315,9.8,13.6,58,0.00,,,0.00,pywws,2013-12-01 13:11:00,
2013-12-01 14:16:00,57.4,42.7,29.89,North,0,8.3,11.4,58,0.00,,,0.00,pywws,2013-12-01 13:16:00,
2013-12-01 14:21:00,57.6,42.9,29.89,NW,315,6.9,9.8,58,0.00,,,0.00,pywws,2013-12-01 13:21:00,
2013-12-01 14:26:00,57.2,42.6,29.88,NW,315,6.9,15.2,58,0.00,,,0.00,pywws,2013-12-01 13:26:00,
2013-12-01 14:31:00,58.6,43.9,29.88,NW,315,7.6,13.0,58,0.00,,,0.00,pywws,2013-12-01 13:31:00,
2013-12-01 14:36:00,57.2,42.1,29.88,North,0,13.0,20.6,57,0.00,,,0.00,pywws,2013-12-01 13:36:00,
2013-12-01 14:41:00,57.7,42.6,29.88,NNW,338,10.7,16.8,57,0.00,,,0.00,pywws,2013-12-01 13:41:00,
2013-12-01 14:46:00,56.3,41.7,29.89,WNW,292,9.2,15.2,58,0.00,,,0.00,pywws,2013-12-01 13:46:00,
2013-12-01 15:00:00,57.2,42.6,29.89,North,0,9.2,14.5,58,0.00,,,0.00,pywws,2013-12-01 14:00:00,
2013-12-01 15:01:00,56.3,41.7,29.88,North,0,11.4,18.3,58,0.00,,,0.00,pywws,2013-12-01 14:01:00,
2013-12-01 15:06:00,56.3,41.7,29.88,North,0,11.4,18.3,58,0.00,,,0.00,pywws,2013-12-01 14:06:00,
2013-12-01 15:11:00,55.8,41.2,29.88,NW,315,6.9,11.4,58,0.00,,,0.00,pywws,2013-12-01 14:11:00,
2013-12-01 15:16:00,56.3,41.7,29.88,NW,315,6.9,10.7,58,0.00,,,0.00,pywws,2013-12-01 14:16:00,
2013-12-01 15:21:00,56.5,41.9,29.89,NNW,338,7.6,12.1,58,0.00,,,0.00,pywws,2013-12-01 14:21:00,
2013-12-01 15:26:00,55.6,41.0,29.89,NW,315,9.8,16.8,58,0.00,,,0.00,pywws,2013-12-01 14:26:00,
2013-12-01 15:31:00,56.3,41.7,29.88,WNW,292,10.7,15.2,58,0.00,,,0.00,pywws,2013-12-01 14:31:00,
2013-12-01 15:36:00,55.4,40.9,29.89,NW,315,6.0,9.2,58,0.00,,,0.00,pywws,2013-12-01 14:36:00,
2013-12-01 15:41:00,55.6,41.5,29.89,NW,315,6.0,13.0,59,0.00,,,0.00,pywws,2013-12-01 14:41:00,
2013-12-01 15:46:00,54.9,40.8,29.89,WNW,292,4.5,11.4,59,0.00,,,0.00,pywws,2013-12-01 14:46:00,
2013-12-01 16:00:00,55.2,41.1,29.89,NW,315,5.4,8.3,59,0.00,,,0.00,pywws,2013-12-01 15:00:00,
2013-12-01 16:01:00,55.4,41.3,29.89,NW,315,1.6,4.5,59,0.00,,,0.00,pywws,2013-12-01 15:01:00,
2013-12-01 16:06:00,54.7,40.6,29.89,NW,315,3.8,7.6,59,0.00,,,0.00,pywws,2013-12-01 15:06:00,
2013-12-01 16:11:00,55.4,41.3,29.89,NW,315,3.8,6.9,59,0.00,,,0.00,pywws,2013-12-01 15:11:00,
2013-12-01 16:16:00,54.7,40.2,29.90,North,0,6.0,10.7,58,0.00,,,0.00,pywws,2013-12-01 15:16:00,
2013-12-01 16:21:00,54.9,40.4,29.89,NW,315,5.4,9.8,58,0.00,,,0.00,pywws,2013-12-01 15:21:00,
2013-12-01 16:26:00,55.0,40.5,29.90,North,0,8.3,11.4,58,0.00,,,0.00,pywws,2013-12-01 15:26:00,
2013-12-01 16:31:00,54.9,40.4,29.90,NW,315,5.4,8.3,58,0.00,,,0.00,pywws,2013-12-01 15:31:00,
2013-12-01 16:36:00,55.2,40.7,29.90,NW,315,6.9,13.0,58,0.00,,,0.00,pywws,2013-12-01 15:36:00,
2013-12-01 16:41:00,54.7,40.2,29.90,NW,315,4.5,9.2,58,0.00,,,0.00,pywws,2013-12-01 15:41:00,
2013-12-01 16:46:00,54.7,40.6,29.90,NW,315,1.6,4.5,59,0.00,,,0.00,pywws,2013-12-01 15:46:00,
2013-12-01 17:00:00,54.3,40.3,29.90,West,270,4.5,7.6,59,0.00,,,0.00,pywws,2013-12-01 16:00:00,
2013-12-01 17:01:00,54.7,41.1,29.90,NW,315,3.1,4.5,60,0.00,,,0.00,pywws,2013-12-01 16:01:00,
2013-12-01 17:06:00,54.9,41.2,29.90,NW,315,2.2,6.9,60,0.00,,,0.00,pywws,2013-12-01 16:06:00,
2013-12-01 17:11:00,54.7,41.1,29.90,West,270,1.6,3.8,60,0.00,,,0.00,pywws,2013-12-01 16:11:00,
2013-12-01 17:16:00,55.2,42.0,29.91,NW,315,1.6,3.8,61,0.00,,,0.00,pywws,2013-12-01 16:16:00,
2013-12-01 17:21:00,53.6,40.5,29.91,NW,315,1.6,3.1,61,0.00,,,0.00,pywws,2013-12-01 16:21:00,
2013-12-01 17:26:00,54.0,41.2,29.91,NW,315,0.7,2.2,62,0.00,,,0.00,pywws,2013-12-01 16:26:00,
2013-12-01 17:31:00,54.0,41.2,29.91,WNW,292,3.1,7.6,62,0.00,,,0.00,pywws,2013-12-01 16:31:00,
2013-12-01 17:36:00,54.9,42.1,29.91,North,0,3.8,5.4,62,0.00,,,0.00,pywws,2013-12-01 16:36:00,
2013-12-01 17:41:00,54.1,41.0,29.91,NW,315,3.8,7.6,61,0.00,,,0.00,pywws,2013-12-01 16:41:00,
2013-12-01 17:46:00,55.4,42.2,29.91,North,0,7.6,11.4,61,0.00,,,0.00,pywws,2013-12-01 16:46:00,
2013-12-01 17:51:00,55.2,41.6,29.91,NW,315,6.0,9.8,60,0.00,,,0.00,pywws,2013-12-01 16:51:00,
2013-12-01 18:01:00,54.9,41.2,29.91,WNW,292,5.4,9.8,60,0.00,,,0.00,pywws,2013-12-01 17:01:00,
2013-12-01 18:06:00,54.9,41.2,29.91,NW,315,3.8,5.4,60,0.00,,,0.00,pywws,2013-12-01 17:06:00,
2013-12-01 18:11:00,54.9,40.8,29.92,NNW,338,3.8,8.3,59,0.00,,,0.00,pywws,2013-12-01 17:11:00,
2013-12-01 18:16:00,54.7,41.1,29.92,West,270,6.9,9.8,60,0.00,,,0.00,pywws,2013-12-01 17:16:00,
2013-12-01 18:21:00,54.1,40.6,29.92,West,270,5.4,10.7,60,0.00,,,0.00,pywws,2013-12-01 17:21:00,
2013-12-01 18:26:00,54.5,40.9,29.91,NW,315,3.8,7.6,60,0.00,,,0.00,pywws,2013-12-01 17:26:00,
2013-12-01 18:31:00,54.5,40.9,29.91,NNE,22,3.1,5.4,60,0.00,,,0.00,pywws,2013-12-01 17:31:00,
2013-12-01 18:36:00,53.8,40.7,29.91,NNW,338,4.5,6.9,61,0.00,,,0.00,pywws,2013-12-01 17:36:00,
2013-12-01 18:41:00,54.0,41.2,29.91,NW,315,4.5,6.9,62,0.00,,,0.00,pywws,2013-12-01 17:41:00,
2013-12-01 18:46:00,54.3,41.2,29.91,NW,315,11.4,15.2,61,0.00,,,0.00,pywws,2013-12-01 17:46:00,
2013-12-01 19:00:00,54.5,41.3,29.90,NW,315,3.8,11.4,61,0.00,,,0.00,pywws,2013-12-01 18:00:00,
2013-12-01 19:01:00,54.1,40.6,29.89,NW,315,7.6,13.0,60,0.00,,,0.00,pywws,2013-12-01 18:01:00,
2013-12-01 19:06:00,54.1,41.0,29.89,NW,315,7.6,13.6,61,0.00,,,0.00,pywws,2013-12-01 18:06:00,
2013-12-01 19:11:00,54.5,41.3,29.89,NW,315,8.3,13.0,61,0.00,,,0.00,pywws,2013-12-01 18:11:00,
2013-12-01 19:16:00,54.3,41.2,29.89,North,0,4.5,9.8,61,0.00,,,0.00,pywws,2013-12-01 18:16:00,
2013-12-01 19:21:00,53.8,41.1,29.89,NW,315,3.8,6.9,62,0.00,,,0.00,pywws,2013-12-01 18:21:00,
2013-12-01 19:26:00,53.6,40.9,29.88,North,0,6.9,10.7,62,0.00,,,0.00,pywws,2013-12-01 18:26:00,
2013-12-01 19:31:00,53.4,40.7,29.88,NW,315,7.6,10.7,62,0.00,,,0.00,pywws,2013-12-01 18:31:00,
2013-12-01 19:36:00,53.6,40.9,29.88,NW,315,6.9,11.4,62,0.00,,,0.00,pywws,2013-12-01 18:36:00,
2013-12-01 19:41:00,53.6,40.9,29.88,NW,315,4.5,10.7,62,0.00,,,0.00,pywws,2013-12-01 18:41:00,
2013-12-01 19:46:00,53.6,41.3,29.88,NW,315,4.5,7.6,63,0.00,,,0.00,pywws,2013-12-01 18:46:00,
2013-12-01 20:00:00,53.6,41.3,29.88,NW,315,6.0,10.7,63,0.00,,,0.00,pywws,2013-12-01 19:00:00,
2013-12-01 20:01:00,53.8,41.5,29.88,North,0,8.3,13.0,63,0.00,,,0.00,pywws,2013-12-01 19:01:00,
2013-12-01 20:06:00,53.8,41.5,29.88,North,0,8.3,13.0,63,0.00,,,0.00,pywws,2013-12-01 19:06:00,
2013-12-01 20:11:00,53.4,42.0,29.88,North,0,5.4,12.1,65,0.00,,,0.00,pywws,2013-12-01 19:11:00,
2013-12-01 20:16:00,53.8,42.3,29.88,NW,315,3.8,5.4,65,0.00,,,0.00,pywws,2013-12-01 19:16:00,
2013-12-01 20:21:00,53.2,41.8,29.87,NW,315,9.2,13.6,65,0.00,,,0.00,pywws,2013-12-01 19:21:00,
2013-12-01 20:26:00,53.6,42.1,29.87,WNW,292,6.0,11.4,65,0.00,,,0.00,pywws,2013-12-01 19:26:00,
2013-12-01 20:31:00,53.4,42.0,29.88,NW,315,3.8,7.6,65,0.00,,,0.00,pywws,2013-12-01 19:31:00,
2013-12-01 20:36:00,53.6,42.1,29.88,West,270,3.8,6.0,65,0.00,,,0.00,pywws,2013-12-01 19:36:00,
2013-12-01 20:41:00,54.0,42.5,29.88,NW,315,4.5,6.9,65,0.00,,,0.00,pywws,2013-12-01 19:41:00,
2013-12-01 20:46:00,54.1,42.6,29.87,NNW,338,6.9,10.7,65,0.00,,,0.00,pywws,2013-12-01 19:46:00,
2013-12-01 21:00:00,53.4,42.0,29.87,NW,315,3.1,6.0,65,0.00,,,0.00,pywws,2013-12-01 20:00:00,
2013-12-01 21:01:00,53.6,42.1,29.88,NE,45,3.1,6.0,65,0.00,,,0.00,pywws,2013-12-01 20:01:00,
2013-12-01 21:06:00,53.8,42.3,29.88,NW,315,1.6,2.2,65,0.00,,,0.00,pywws,2013-12-01 20:06:00,
2013-12-01 21:11:00,54.0,42.5,29.88,NW,315,1.6,3.8,65,0.00,,,0.00,pywws,2013-12-01 20:11:00,
2013-12-01 21:16:00,53.4,41.6,29.88,NW,315,3.8,6.0,64,0.00,,,0.00,pywws,2013-12-01 20:16:00,
2013-12-01 21:21:00,53.2,41.8,29.88,WNW,292,4.5,7.6,65,0.00,,,0.00,pywws,2013-12-01 20:21:00,
2013-12-01 21:26:00,53.6,41.7,29.87,NW,315,6.9,9.8,64,0.00,,,0.00,pywws,2013-12-01 20:26:00,
2013-12-01 21:31:00,53.4,41.6,29.88,WNW,292,3.1,5.4,64,0.00,,,0.00,pywws,2013-12-01 20:31:00,
2013-12-01 21:36:00,53.8,41.9,29.88,West,270,4.5,9.8,64,0.00,,,0.00,pywws,2013-12-01 20:36:00,
2013-12-01 21:41:00,53.6,42.1,29.88,NW,315,5.4,9.2,65,0.00,,,0.00,pywws,2013-12-01 20:41:00,
2013-12-01 21:46:00,54.3,42.4,29.88,North,0,6.0,11.4,64,0.00,,,0.00,pywws,2013-12-01 20:46:00,
2013-12-01 22:00:00,54.3,42.4,29.88,NW,315,7.6,12.1,64,0.00,,,0.00,pywws,2013-12-01 21:00:00,
2013-12-01 22:01:00,54.3,42.4,29.87,NW,315,4.5,10.7,64,0.00,,,0.00,pywws,2013-12-01 21:01:00,
2013-12-01 22:06:00,54.3,42.4,29.87,NW,315,4.5,10.7,64,0.00,,,0.00,pywws,2013-12-01 21:06:00,
2013-12-01 22:11:00,54.0,42.1,29.88,NW,315,4.5,6.9,64,0.00,,,0.00,pywws,2013-12-01 21:11:00,
2013-12-01 22:16:00,53.8,41.9,29.88,NW,315,5.4,7.6,64,0.00,,,0.00,pywws,2013-12-01 21:16:00,
2013-12-01 22:21:00,55.0,43.1,29.88,NW,315,4.5,9.8,64,0.00,,,0.00,pywws,2013-12-01 21:21:00,
2013-12-01 22:26:00,53.4,41.6,29.88,WNW,292,3.1,6.0,64,0.00,,,0.00,pywws,2013-12-01 21:26:00,
2013-12-01 22:31:00,54.3,42.4,29.88,North,0,3.8,5.4,64,0.00,,,0.00,pywws,2013-12-01 21:31:00,
2013-12-01 22:36:00,53.8,42.3,29.88,NW,315,4.5,8.3,65,0.00,,,0.00,pywws,2013-12-01 21:36:00,
2013-12-01 22:41:00,52.7,41.7,29.87,West,270,4.5,9.8,66,0.00,,,0.00,pywws,2013-12-01 21:41:00,
2013-12-01 22:46:00,54.5,43.4,29.87,West,270,3.8,6.9,66,0.00,,,0.00,pywws,2013-12-01 21:46:00,
2013-12-01 23:00:00,53.4,42.3,29.87,NW,315,4.5,6.9,66,0.00,,,0.00,pywws,2013-12-01 22:00:00,
2013-12-01 23:01:00,53.6,42.5,29.87,NW,315,6.9,13.0,66,0.00,,,0.00,pywws,2013-12-01 22:01:00,
2013-12-01 23:06:00,54.0,42.9,29.86,WNW,292,3.8,11.4,66,0.00,,,0.00,pywws,2013-12-01 22:06:00,
2013-12-01 23:11:00,54.1,43.0,29.86,NW,315,4.5,10.7,66,0.00,,,0.00,pywws,2013-12-01 22:11:00,
2013-12-01 23:16:00,53.1,42.0,29.87,North,0,5.4,8.3,66,0.00,,,0.00,pywws,2013-12-01 22:16:00,
2013-12-01 23:21:00,53.8,42.7,29.87,West,270,3.8,6.9,66,0.00,,,0.00,pywws,2013-12-01 22:21:00,
2013-12-01 23:26:00,53.2,42.2,29.86,NW,315,1.6,5.4,66,0.00,,,0.00,pywws,2013-12-01 22:26:00,
2013-12-01 23:31:00,53.6,42.9,29.86,NW,315,2.2,4.5,67,0.00,,,0.00,pywws,2013-12-01 22:31:00,
2013-12-01 23:36:00,53.6,42.9,29.86,NW,315,2.2,5.4,67,0.00,,,0.00,pywws,2013-12-01 22:36:00,
2013-12-01 23:41:00,53.6,42.9,29.86,NW,315,4.5,7.6,67,0.00,,,0.00,pywws,2013-12-01 22:41:00,
2013-12-01 23:46:00,54.3,43.6,29.87,North,0,7.6,13.6,67,0.00,,,0.00,pywws,2013-12-01 22:46:00,